This demonstration page uses our WeatherBlox Daily Observations layout. Learn more.

Left ArrowRight Arrow

Hourly Observations for May 31, 2021

Temp ( °F °C ) Dew Point ( °F °C ) Humidity (%) Winds ( mph kmh ) Pressure ( in mb ) Visibility ( mi km ) Precip ( " mm )
12:53 am 00:53 Clear 86 30 38 3.3 18 18 NNW 7 11 29.80 1009 10 16 0.00 0.00
1:53 am 01:53 Clear 84 28.9 39 3.9 20 20 NNW 9 15 29.81 1010 10 16 0.00 0.00
2:53 am 02:53 Clear 83 28.3 39 3.9 21 21 NNW 10 17 29.82 1010 10 16 0.00 0.00
3:53 am 03:53 Clear 82 27.8 40 4.4 22 22 NNW 8 13 29.83 1010 10 16 0.00 0.00
4:53 am 04:53 Clear 82 27.8 40 4.4 22 22 NNW 9 15 29.84 1010 10 16 0.00 0.00
5:53 am 05:53 Sunny 81 27.2 42 5.6 25 25 NNW 8 13 29.85 1011 10 16 0.00 0.00
6:53 am 06:53 Sunny 82 27.8 43 6.1 25 25 NNW 9 15 29.86 1011 10 16 0.00 0.00
7:53 am 07:53 Sunny 86 30 42 5.6 21 21 NNW 14 22 29.86 1011 10 16 0.00 0.00
8:53 am 08:53 Sunny 88 31.1 42 5.6 20 20 N 14 22 29.86 1011 10 16 0.00 0.00
9:53 am 09:53 Sunny 91 32.8 41 5 17 17 N 13 20 29.86 1011 10 16 0.00 0.00
10:53 am 10:53 Sunny 94 34.4 41 5 16 16 NNW 12 19 29.86 1011 10 16 0.00 0.00
11:53 am 11:53 Sunny 98 36.7 41 5 14 14 NNW 9 15 29.85 1011 10 16 0.00 0.00
12:53 pm 12:53 Sunny 101 38.3 39 3.9 12 12 N 9 15 29.84 1010 10 16 0.00 0.00
1:53 pm 13:53 Sunny 104 40 39 3.9 11 11 VRB 7 11 29.82 1010 10 16 0.00 0.00
2:53 pm 14:53 Sunny 105 40.6 35 1.7 9 9 Calm 29.80 1009 10 16 0.00 0.00
3:53 pm 15:53 Sunny 107 41.7 24 -4.4 5 5 VRB 3 6 29.78 1009 10 16 0.00 0.00
4:53 pm 16:53 Sunny 108 42.2 17 -8.3 4 4 NNE 7 11 29.77 1008 10 16 0.00 0.00
5:53 pm 17:53 Sunny 107 41.7 22 -5.6 5 5 NE 6 9 29.76 1008 10 16 0.00 0.00
6:53 pm 18:53 Sunny 106 41.1 26 -3.3 6 6 NNE 5 7 29.75 1007 10 16 0.00 0.00
7:53 pm 19:53 Sunny 103 39.4 30 -1.1 8 8 Calm 29.75 1008 10 16 0.00 0.00
8:53 pm 20:53 Clear 92 33.3 39 3.9 16 16 Calm 29.76 1008 10 16 0.00 0.00
9:53 pm 21:53 Clear 87 30.6 43 6.1 21 21 NNE 3 6 29.79 1009 10 16 0.00 0.00
10:53 pm 22:53 Clear 85 29.4 45 7.2 25 25 Calm 29.80 1009 10 16 0.00 0.00
11:53 pm 23:53 Clear 83 28.3 48 8.9 30 30 NW 5 7 29.81 1010 10 16 0.00 0.00

Powered by AerisWeather